sat.trackr.live / text

‹ back to catalog

STARLINK-33877

NORAD 63933 · 2025-098H

PAYLOAD ACTIVE UNKNOWN

§ Identity

Operator
Country
US
Launch date
2025-05-13
Launch site
AFWTR
Launch vehicle
Mass (kg)
RCS (m²)

Purposes: comms

External: N2YO · Heavens-Above · Gunter

§ Orbital elements

Epoch: 2026-09-20T22:43:56.364960Z

Period
94.14 min
Inclination
69.9997°
Eccentricity
0.0003172
Mean motion
15.29581932 rev/d
Perigee alt
474.9 km
Apogee alt
479.2 km
Semi-major
6,855.2 km
B*
1.3723e-4
RAAN
139.6031°
Arg perigee
272.8542°
Mean anomaly
87.2270°
Rev number
7,588

§ Raw data

STARLINK-338771 63933U 25098H   26263.94718015  .00003819  00000+0  13723-3 0  99912 63933  69.9997 139.6031 0003172 272.8542  87.2270 15.29581932 75880

JSON: /api/v1/satellites/63933 · /tle

For live sub-satellite position, see the globe view (requires WebGL).

§ Visibility from observer

Set your observer location to see the next 7 days of passes ≥ 10°. The values pass through the URL so the page stays shareable.

No JS? Fill the form by hand. The geolocation button needs JavaScript.